Satellite-Ground Cal/Val Site Overpasses Predictions

Prediction of Satellite NPP Overpassing Cal/Val Site: Antarctic Dome C

Ground Cal/Val Site Location: Latitude: -75.10, Longitude: 123.35; Satellite-Ground Site NADIR distance within 100 km.

Table of predicted overpasses for the next 14.0 days since TLE Epoch: 4/3/2021
Interval Starting Time Ending Time Minimum Distance Time Minimum Distance (km)
1 04/03/2021 15:00:38 04/03/2021 15:01:02 04/03/2021 15:00:50 57.49
2 04/04/2021 14:41:47 04/04/2021 14:42:12 04/04/2021 14:41:59 51.65
3 04/05/2021 07:43:28 04/05/2021 07:43:48 04/05/2021 07:43:38 69.58
4 04/06/2021 07:24:35 04/06/2021 07:25:02 04/06/2021 07:24:49 38.42
5 04/08/2021 15:07:00 04/08/2021 15:07:08 04/08/2021 15:07:04 94.96
6 04/09/2021 14:47:59 04/09/2021 14:48:28 04/09/2021 14:48:14 16.23
7 04/11/2021 07:30:48 04/11/2021 07:31:17 04/11/2021 07:31:03 3.04
8 04/14/2021 14:54:14 04/14/2021 14:54:43 04/14/2021 14:54:28 20.14
9 04/15/2021 14:35:31 04/15/2021 14:35:45 04/15/2021 14:35:38 87.04
